Hourly Weather Satif

Today, 5 August, Wednesday

Time Temperature Precipitation Wind Pressure Humidity
00:00 +19°C° 0 mm 1 mps 672 mmHg 74%
01:00 +19°C° 0 mm 1 mps 671 mmHg 74%
02:00 +19°C° 0 mm 1 mps 671 mmHg 75%
03:00 +18°C° 0 mm 1 mps 671 mmHg 76%
04:00 +18°C° 0 mm 1 mps 671 mmHg 74%
05:00 +19°C° 0 mm 1 mps 671 mmHg 72%
06:00 +19°C° 0 mm 1 mps 671 mmHg 69%
07:00 +21°C° 0 mm 1 mps 672 mmHg 60%
08:00 +23°C° 0 mm 1 mps 672 mmHg 52%
09:00 +25°C° 0 mm 1 mps 673 mmHg 43%
10:00 +26°C° 0 mm 1 mps 673 mmHg 37%
11:00 +28°C° 0 mm 1 mps 673 mmHg 32%
12:00 +29°C° 0 mm 2 mps 673 mmHg 27%
13:00 +30°C° 0 mm 3 mps 673 mmHg 26%
14:00 +30°C° 0 mm 3 mps 673 mmHg 25%
15:00 +32°C° 0 mm 4 mps 673 mmHg 24%
16:00 +29°C° 0 mm 4 mps 673 mmHg 28%
17:00 +27°C° 0 mm 5 mps 672 mmHg 32%
18:00 +26°C° 0 mm 5 mps 672 mmHg 36%
19:00 +25°C° 0 mm 4 mps 672 mmHg 39%
20:00 +22°C° 0 mm 3 mps 672 mmHg 42%
21:00 +21°C° 0 mm 2 mps 672 mmHg 46%
22:00 +20°C° 0 mm 2 mps 672 mmHg 45%
23:00 +20°C° 0 mm 2 mps 672 mmHg 45%

Tomorrow, 6 August, Thursday

Time Temperature Precipitation Wind Pressure Humidity
00:00 +20°C° 0 mm 1 mps 672 mmHg 45%
01:00 +20°C° 0 mm 1 mps 672 mmHg 46%
02:00 +19°C° 0 mm 1 mps 671 mmHg 47%
03:00 +16°C° 0 mm 0 mps 671 mmHg 47%
04:00 +17°C° 0 mm 0 mps 672 mmHg 45%
05:00 +18°C° 0 mm 0 mps 672 mmHg 43%
06:00 +19°C° 0 mm 0 mps 673 mmHg 40%
07:00 +20°C° 0 mm 0 mps 673 mmHg 38%
08:00 +24°C° 0 mm 1 mps 674 mmHg 35%
09:00 +25°C° 0 mm 1 mps 674 mmHg 32%
10:00 +27°C° 0 mm 2 mps 675 mmHg 29%
11:00 +28°C° 0 mm 2 mps 675 mmHg 25%
12:00 +30°C° 0 mm 3 mps 675 mmHg 22%
13:00 +30°C° 0 mm 3 mps 675 mmHg 21%
14:00 +32°C° 0 mm 4 mps 675 mmHg 21%
15:00 +32°C° 0 mm 4 mps 675 mmHg 20%
16:00 +30°C° 0 mm 4 mps 674 mmHg 23%
17:00 +29°C° 0 mm 4 mps 674 mmHg 25%
18:00 +28°C° 0 mm 4 mps 674 mmHg 28%
19:00 +26°C° 0 mm 3 mps 674 mmHg 33%
20:00 +24°C° 0 mm 2 mps 674 mmHg 39%
21:00 +23°C° 0 mm 2 mps 674 mmHg 44%
22:00 +22°C° 0 mm 1 mps 673 mmHg 45%
23:00 +21°C° 0 mm 1 mps 673 mmHg 46%

Day after tomorrow, 7 August, Friday

Time Temperature Precipitation Wind Pressure Humidity
00:00 +21°C° 0 mm 1 mps 673 mmHg 47%
01:00 +20°C° 0 mm 1 mps 673 mmHg 47%
02:00 +19°C° 0 mm 1 mps 673 mmHg 47%
03:00 +19°C° 0 mm 1 mps 672 mmHg 47%
04:00 +20°C° 0 mm 1 mps 673 mmHg 44%
05:00 +21°C° 0 mm 1 mps 673 mmHg 41%
06:00 +21°C° 0 mm 1 mps 674 mmHg 39%
07:00 +23°C° 0 mm 1 mps 675 mmHg 33%
08:00 +25°C° 0 mm 1 mps 675 mmHg 28%
09:00 +25°C° 0 mm 0 mps 676 mmHg 23%
10:00 +29°C° 0 mm 1 mps 676 mmHg 20%
11:00 +30°C° 0 mm 2 mps 676 mmHg 18%
12:00 +31°C° 0 mm 2 mps 676 mmHg 15%
13:00 +33°C° 0 mm 3 mps 676 mmHg 16%
14:00 +33°C° 0 mm 4 mps 676 mmHg 17%
15:00 +33°C° 0 mm 4 mps 676 mmHg 17%
16:00 +32°C° 0 mm 4 mps 675 mmHg 22%
17:00 +30°C° 0 mm 4 mps 675 mmHg 27%
18:00 +28°C° 0 mm 4 mps 675 mmHg 32%
19:00 +27°C° 0 mm 4 mps 675 mmHg 39%
20:00 +25°C° 0 mm 3 mps 675 mmHg 46%
21:00 +23°C° 0 mm 2 mps 675 mmHg 52%
22:00 +23°C° 0 mm 2 mps 675 mmHg 54%
23:00 +22°C° 0 mm 1 mps 674 mmHg 55%

8 August, Saturday

Time Temperature Precipitation Wind Pressure Humidity
00:00 +22°C° 0 mm 1 mps 674 mmHg 56%
01:00 +21°C° 0 mm 1 mps 674 mmHg 58%
02:00 +21°C° 0 mm 1 mps 674 mmHg 59%
03:00 +20°C° 0 mm 1 mps 674 mmHg 61%
04:00 +21°C° 0 mm 1 mps 674 mmHg 58%
05:00 +22°C° 0 mm 1 mps 674 mmHg 55%
06:00 +22°C° 0 mm 1 mps 675 mmHg 52%
07:00 +24°C° 0 mm 1 mps 675 mmHg 43%
08:00 +26°C° 0 mm 1 mps 676 mmHg 35%
09:00 +28°C° 0 mm 1 mps 677 mmHg 27%
10:00 +29°C° 0 mm 1 mps 677 mmHg 24%
11:00 +31°C° 0 mm 2 mps 677 mmHg 20%
12:00 +32°C° 0 mm 2 mps 677 mmHg 17%
13:00 +33°C° 0 mm 3 mps 677 mmHg 17%
14:00 +34°C° 0 mm 4 mps 676 mmHg 17%
15:00 +34°C° 0 mm 5 mps 676 mmHg 17%
16:00 +32°C° 0 mm 5 mps 676 mmHg 20%
17:00 +30°C° 0 mm 5 mps 675 mmHg 23%
18:00 +29°C° 0 mm 4 mps 675 mmHg 26%
19:00 +27°C° 0 mm 4 mps 675 mmHg 32%
20:00 +25°C° 0 mm 3 mps 675 mmHg 37%
21:00 +24°C° 0 mm 2 mps 675 mmHg 43%
22:00 +23°C° 0 mm 1 mps 674 mmHg 43%
23:00 +22°C° 0 mm 1 mps 674 mmHg 44%

9 August, Sunday

Time Temperature Precipitation Wind Pressure Humidity
00:00 +22°C° 0 mm 1 mps 674 mmHg 45%
01:00 +21°C° 0 mm 1 mps 673 mmHg 45%
02:00 +19°C° 0 mm 0 mps 673 mmHg 45%
03:00 +18°C° 0 mm 0 mps 672 mmHg 46%
04:00 +19°C° 0 mm 0 mps 673 mmHg 42%
05:00 +20°C° 0 mm 0 mps 673 mmHg 39%
06:00 +21°C° 0 mm 0 mps 674 mmHg 36%
07:00 +25°C° 0 mm 1 mps 674 mmHg 31%
08:00 +27°C° 0 mm 1 mps 675 mmHg 26%
09:00 +29°C° 0 mm 1 mps 676 mmHg 21%
10:00 +30°C° 0 mm 2 mps 676 mmHg 19%
11:00 +33°C° 0 mm 3 mps 676 mmHg 17%
12:00 +34°C° 0 mm 4 mps 676 mmHg 15%
13:00 +34°C° 0 mm 5 mps 675 mmHg 15%
14:00 +34°C° 0 mm 5 mps 675 mmHg 15%
15:00 +34°C° 0 mm 6 mps 675 mmHg 16%
16:00 +33°C° 0 mm 5 mps 674 mmHg 18%
17:00 +32°C° 0 mm 5 mps 674 mmHg 20%
18:00 +30°C° 0 mm 4 mps 674 mmHg 22%
19:00 +28°C° 0 mm 3 mps 673 mmHg 26%
20:00 +26°C° 0 mm 3 mps 673 mmHg 30%
21:00 +25°C° 0 mm 2 mps 673 mmHg 34%
22:00 +24°C° 0 mm 1 mps 673 mmHg 36%
23:00 +23°C° 0 mm 1 mps 673 mmHg 37%

10 August, Monday

Time Temperature Precipitation Wind Pressure Humidity
00:00 +23°C° 0 mm 1 mps 672 mmHg 39%
01:00 +22°C° 0 mm 1 mps 672 mmHg 40%
02:00 +22°C° 0 mm 1 mps 672 mmHg 41%
03:00 +21°C° 0 mm 1 mps 671 mmHg 42%
04:00 +20°C° 0 mm 0 mps 672 mmHg 40%
05:00 +21°C° 0 mm 0 mps 672 mmHg 38%
06:00 +22°C° 0 mm 0 mps 673 mmHg 36%
07:00 +26°C° 0 mm 1 mps 673 mmHg 31%
08:00 +28°C° 0 mm 1 mps 674 mmHg 25%
09:00 +30°C° 0 mm 1 mps 675 mmHg 20%
10:00 +31°C° 0 mm 2 mps 675 mmHg 19%
11:00 +34°C° 0 mm 2 mps 675 mmHg 17%
12:00 +35°C° 0 mm 3 mps 675 mmHg 16%
13:00 +35°C° 0 mm 4 mps 675 mmHg 16%
14:00 +35°C° 0 mm 5 mps 675 mmHg 15%
15:00 +36°C° 0 mm 5 mps 674 mmHg 15%
16:00 +35°C° 0 mm 5 mps 674 mmHg 17%
17:00 +34°C° 0 mm 5 mps 674 mmHg 18%
18:00 +33°C° 0 mm 4 mps 673 mmHg 20%
19:00 +30°C° 0 mm 3 mps 673 mmHg 23%
20:00 +28°C° 0 mm 3 mps 673 mmHg 26%
21:00 +27°C° 0 mm 2 mps 673 mmHg 29%
22:00 +26°C° 0 mm 2 mps 673 mmHg 32%
23:00 +26°C° 0 mm 2 mps 673 mmHg 34%
Show more